RADUGA 7 [-]

Last updated on Nov. 14, 2019, 4:22 a.m. UTC

1 12003U 80081A   19316.41954157 -.00000228  00000-0  00000-0 0  9992
2 12003  11.4543 315.2266 0010497 262.4581 263.6851  1.00170391 99157
UTC
Height (km)
Latitude
Longitude
Inclination
Orbital Period
UTC large
Height (km)
Speed (km/s)
/
Latitude / Longitude
Inclination (degrees)
Orbital Period (minutes)
Azimuth
Elevation
Range (km)
Doppler Factor
iOS Compass Heading
iOS Angle

Next 30 passes for location: Hong Kong

Rise time Rise Azimuth (degrees) Set time Set Azimuth (degrees) Duration Max altitude (degrees)

No matching passes for this satellites